Year,Month,Day,Hour,Minute,Value (Times are PST for temperature in C)
2016,04,30,00,00,10.50
2016,04,30,00,01,10.40
2016,04,30,00,02,10.30
2016,04,30,00,03,10.30
2016,04,30,00,04,10.20
2016,04,30,00,05,10.20
2016,04,30,00,06,10.30
2016,04,30,00,07,10.30
2016,04,30,00,08,10.30
2016,04,30,00,09,10.20
2016,04,30,00,10,10.20
2016,04,30,00,11,10.20
2016,04,30,00,12,10.10
2016,04,30,00,13,10.10
2016,04,30,00,14,10.10
2016,04,30,00,15,10.10
2016,04,30,00,16,10.00
2016,04,30,00,17,10.00
2016,04,30,00,18,10.00
2016,04,30,00,19,10.00
2016,04,30,00,20,10.10
2016,04,30,00,21,10.20
2016,04,30,00,22,10.30
2016,04,30,00,23,10.40
2016,04,30,00,24,10.40
2016,04,30,00,25,10.40
2016,04,30,00,26,10.40
2016,04,30,00,27,10.40
2016,04,30,00,28,10.40
2016,04,30,00,29,10.40
2016,04,30,00,30,10.40
2016,04,30,00,31,10.40
2016,04,30,00,32,10.40
2016,04,30,00,33,10.30
2016,04,30,00,34,10.30
2016,04,30,00,35,10.30
2016,04,30,00,36,10.30
2016,04,30,00,37,10.30
2016,04,30,00,38,10.20
2016,04,30,00,39,10.20
2016,04,30,00,40,10.20
2016,04,30,00,41,10.10
2016,04,30,00,42,10.10
2016,04,30,00,43,10.00
2016,04,30,00,44,10.00
2016,04,30,00,45,9.90
2016,04,30,00,46,9.80
2016,04,30,00,47,9.70
2016,04,30,00,48,9.60
2016,04,30,00,49,9.50
2016,04,30,00,50,9.40
2016,04,30,00,51,9.20
2016,04,30,00,52,9.10
2016,04,30,00,53,9.00
2016,04,30,00,54,9.00
2016,04,30,00,55,8.90
2016,04,30,00,56,8.90
2016,04,30,00,57,8.90
2016,04,30,00,58,9.00
2016,04,30,00,59,9.10
2016,04,30,01,00,9.20
2016,04,30,01,01,9.20
2016,04,30,01,02,9.30
2016,04,30,01,03,9.30
2016,04,30,01,04,9.20
2016,04,30,01,05,9.20
2016,04,30,01,06,9.20
2016,04,30,01,07,9.20
2016,04,30,01,08,9.20
2016,04,30,01,09,9.20
2016,04,30,01,10,9.20
2016,04,30,01,11,9.20
2016,04,30,01,12,9.20
2016,04,30,01,13,9.30
2016,04,30,01,14,9.30
2016,04,30,01,15,9.30
2016,04,30,01,16,9.30
2016,04,30,01,17,9.30
2016,04,30,01,18,9.30
2016,04,30,01,19,9.20
2016,04,30,01,20,9.20
2016,04,30,01,21,9.20
2016,04,30,01,22,9.20
2016,04,30,01,23,9.20
2016,04,30,01,24,9.20
2016,04,30,01,25,9.10
2016,04,30,01,26,9.20
2016,04,30,01,27,9.20
2016,04,30,01,28,9.20
2016,04,30,01,29,9.20
2016,04,30,01,30,9.20
2016,04,30,01,31,9.10
2016,04,30,01,32,9.10
2016,04,30,01,33,9.10
2016,04,30,01,34,9.00
2016,04,30,01,35,9.10
2016,04,30,01,36,9.10
2016,04,30,01,37,9.10
2016,04,30,01,38,9.10
2016,04,30,01,39,9.10
2016,04,30,01,40,9.00
2016,04,30,01,41,9.00
2016,04,30,01,42,9.00
2016,04,30,01,43,8.90
2016,04,30,01,44,8.90
2016,04,30,01,45,8.90
2016,04,30,01,46,9.00
2016,04,30,01,47,9.10
2016,04,30,01,48,9.30
2016,04,30,01,49,9.50
2016,04,30,01,50,9.60
2016,04,30,01,51,9.70
2016,04,30,01,52,9.80
2016,04,30,01,53,9.90
2016,04,30,01,54,9.90
2016,04,30,01,55,9.90
2016,04,30,01,56,10.00
2016,04,30,01,57,10.00
2016,04,30,01,58,10.00
2016,04,30,01,59,10.10
2016,04,30,02,00,10.10
2016,04,30,02,01,10.10
2016,04,30,02,02,10.10
2016,04,30,02,03,10.10
2016,04,30,02,04,10.00
2016,04,30,02,05,10.00
2016,04,30,02,06,10.00
2016,04,30,02,07,10.00
2016,04,30,02,08,10.00
2016,04,30,02,09,9.90
2016,04,30,02,10,9.80
2016,04,30,02,11,9.80
2016,04,30,02,12,9.70
2016,04,30,02,13,9.60
2016,04,30,02,14,9.50
2016,04,30,02,15,9.40
2016,04,30,02,16,9.40
2016,04,30,02,17,9.30
2016,04,30,02,18,9.30
2016,04,30,02,19,9.30
2016,04,30,02,20,9.20
2016,04,30,02,21,9.20
2016,04,30,02,22,9.10
2016,04,30,02,23,9.00
2016,04,30,02,24,8.90
2016,04,30,02,25,8.80
2016,04,30,02,26,8.80
2016,04,30,02,27,8.80
2016,04,30,02,28,8.70
2016,04,30,02,29,8.70
2016,04,30,02,30,8.70
2016,04,30,02,31,8.70
2016,04,30,02,32,8.60
2016,04,30,02,33,8.60
2016,04,30,02,34,8.60
2016,04,30,02,35,8.60
2016,04,30,02,36,8.50
2016,04,30,02,37,8.50
2016,04,30,02,38,8.50
2016,04,30,02,39,8.40
2016,04,30,02,40,8.30
2016,04,30,02,41,8.20
2016,04,30,02,42,8.20
2016,04,30,02,43,8.10
2016,04,30,02,44,8.00
2016,04,30,02,45,7.90
2016,04,30,02,46,7.80
2016,04,30,02,47,7.70
2016,04,30,02,48,7.60
2016,04,30,02,49,7.50
2016,04,30,02,50,7.50
2016,04,30,02,51,7.40
2016,04,30,02,52,7.50
2016,04,30,02,53,7.40
2016,04,30,02,54,7.40
2016,04,30,02,55,7.40
2016,04,30,02,56,7.40
2016,04,30,02,57,7.40
2016,04,30,02,58,7.40
2016,04,30,02,59,7.40
2016,04,30,03,00,7.40
2016,04,30,03,01,7.40
2016,04,30,03,02,7.40
2016,04,30,03,03,7.40
2016,04,30,03,04,7.40
2016,04,30,03,05,7.30
2016,04,30,03,06,7.30
2016,04,30,03,07,7.30
2016,04,30,03,08,7.40
2016,04,30,03,09,7.40
2016,04,30,03,10,7.40
2016,04,30,03,11,7.50
2016,04,30,03,12,7.50
2016,04,30,03,13,7.50
2016,04,30,03,14,7.50
2016,04,30,03,15,7.50
2016,04,30,03,16,7.50
2016,04,30,03,17,7.50
2016,04,30,03,18,7.50
2016,04,30,03,19,7.40
2016,04,30,03,20,7.40
2016,04,30,03,21,7.30
2016,04,30,03,22,7.20
2016,04,30,03,23,7.20
2016,04,30,03,24,7.10
2016,04,30,03,25,7.10
2016,04,30,03,26,7.10
2016,04,30,03,27,7.00
2016,04,30,03,28,7.00
2016,04,30,03,29,7.00
2016,04,30,03,30,7.00
2016,04,30,03,31,7.10
2016,04,30,03,32,7.10
2016,04,30,03,33,7.20
2016,04,30,03,34,7.20
2016,04,30,03,35,7.20
2016,04,30,03,36,7.30
2016,04,30,03,37,7.30
2016,04,30,03,38,7.40
2016,04,30,03,39,7.40
2016,04,30,03,40,7.40
2016,04,30,03,41,7.40
2016,04,30,03,42,7.40
2016,04,30,03,43,7.40
2016,04,30,03,44,7.40
2016,04,30,03,45,7.50
2016,04,30,03,46,7.50
2016,04,30,03,47,7.50
2016,04,30,03,48,7.50
2016,04,30,03,49,7.40
2016,04,30,03,50,7.40
2016,04,30,03,51,7.40
2016,04,30,03,52,7.40
2016,04,30,03,53,7.40
2016,04,30,03,54,7.40
2016,04,30,03,55,7.50
2016,04,30,03,56,7.40
2016,04,30,03,57,7.50
2016,04,30,03,58,7.60
2016,04,30,03,59,7.60
2016,04,30,04,00,7.60
2016,04,30,04,01,7.70
2016,04,30,04,02,7.70
2016,04,30,04,03,7.80
2016,04,30,04,04,7.80
2016,04,30,04,05,7.80
2016,04,30,04,06,7.80
2016,04,30,04,07,7.80
2016,04,30,04,08,7.80
2016,04,30,04,09,7.80
2016,04,30,04,10,7.80
2016,04,30,04,11,7.80
2016,04,30,04,12,7.80
2016,04,30,04,13,7.80
2016,04,30,04,14,7.80
2016,04,30,04,15,7.80
2016,04,30,04,16,7.70
2016,04,30,04,17,7.70
2016,04,30,04,18,7.60
2016,04,30,04,19,7.60
2016,04,30,04,20,7.60
2016,04,30,04,21,7.60
2016,04,30,04,22,7.60
2016,04,30,04,23,7.60
2016,04,30,04,24,7.60
2016,04,30,04,25,7.60
2016,04,30,04,26,7.60
2016,04,30,04,27,7.60
2016,04,30,04,28,7.60
2016,04,30,04,29,7.60
2016,04,30,04,30,7.60
2016,04,30,04,31,7.60
2016,04,30,04,32,7.60
2016,04,30,04,33,7.60
2016,04,30,04,34,7.60
2016,04,30,04,35,7.60
2016,04,30,04,36,7.60
2016,04,30,04,37,7.60
2016,04,30,04,38,7.50
2016,04,30,04,39,7.50
2016,04,30,04,40,7.40
2016,04,30,04,41,7.40
2016,04,30,04,42,7.30
2016,04,30,04,43,7.30
2016,04,30,04,44,7.30
2016,04,30,04,45,7.30
2016,04,30,04,46,7.30
2016,04,30,04,47,7.30
2016,04,30,04,48,7.20
2016,04,30,04,49,7.20
2016,04,30,04,50,7.10
2016,04,30,04,51,7.10
2016,04,30,04,52,7.10
2016,04,30,04,53,7.10
2016,04,30,04,54,7.10
2016,04,30,04,55,7.10
2016,04,30,04,56,7.10
2016,04,30,04,57,7.10
2016,04,30,04,58,7.00
2016,04,30,04,59,7.00
2016,04,30,05,00,7.00
2016,04,30,05,01,7.00
2016,04,30,05,02,7.00
2016,04,30,05,03,7.00
2016,04,30,05,04,6.90
2016,04,30,05,05,6.90
2016,04,30,05,06,6.90
2016,04,30,05,07,6.90
2016,04,30,05,08,7.00
2016,04,30,05,09,7.00
2016,04,30,05,10,7.00
2016,04,30,05,11,7.00
2016,04,30,05,12,7.00
2016,04,30,05,13,7.00
2016,04,30,05,14,7.00
2016,04,30,05,15,6.90
2016,04,30,05,16,6.90
2016,04,30,05,17,6.90
2016,04,30,05,18,6.80
2016,04,30,05,19,6.80
2016,04,30,05,20,6.70
2016,04,30,05,21,6.70
2016,04,30,05,22,6.80
2016,04,30,05,23,6.80
2016,04,30,05,24,6.70
2016,04,30,05,25,6.70
2016,04,30,05,26,6.70
2016,04,30,05,27,6.70
2016,04,30,05,28,6.70
2016,04,30,05,29,6.60
2016,04,30,05,30,6.50
2016,04,30,05,31,6.50
2016,04,30,05,32,6.40
2016,04,30,05,33,6.40
2016,04,30,05,34,6.40
2016,04,30,05,35,6.30
2016,04,30,05,36,6.30
2016,04,30,05,37,6.30
2016,04,30,05,38,6.40
2016,04,30,05,39,6.40
2016,04,30,05,40,6.40
2016,04,30,05,41,6.50
2016,04,30,05,42,6.60
2016,04,30,05,43,6.60
2016,04,30,05,44,6.60
2016,04,30,05,45,6.60
2016,04,30,05,46,6.60
2016,04,30,05,47,6.60
2016,04,30,05,48,6.60
2016,04,30,05,49,6.70
2016,04,30,05,50,6.70
2016,04,30,05,51,6.70
2016,04,30,05,52,6.70
2016,04,30,05,53,6.80
2016,04,30,05,54,6.80
2016,04,30,05,55,6.80
2016,04,30,05,56,6.70
2016,04,30,05,57,6.60
2016,04,30,05,58,6.60
2016,04,30,05,59,6.50
2016,04,30,06,00,6.50
2016,04,30,06,01,6.40
2016,04,30,06,02,6.40
2016,04,30,06,03,6.50
2016,04,30,06,04,6.50
2016,04,30,06,05,6.60
2016,04,30,06,06,6.60
2016,04,30,06,07,6.70
2016,04,30,06,08,6.70
2016,04,30,06,09,6.70
2016,04,30,06,10,6.70
2016,04,30,06,11,6.80
2016,04,30,06,12,6.80
2016,04,30,06,13,6.80
2016,04,30,06,14,6.80
2016,04,30,06,15,6.80
2016,04,30,06,16,6.80
2016,04,30,06,17,6.80
2016,04,30,06,18,6.80
2016,04,30,06,19,6.90
2016,04,30,06,20,6.90
2016,04,30,06,21,6.90
2016,04,30,06,22,6.90
2016,04,30,06,23,6.90
2016,04,30,06,24,6.90
2016,04,30,06,25,6.90
2016,04,30,06,26,6.90
2016,04,30,06,27,6.90
2016,04,30,06,28,6.90
2016,04,30,06,29,6.90
2016,04,30,06,30,6.90
2016,04,30,06,31,7.00
2016,04,30,06,32,7.00
2016,04,30,06,33,7.00
2016,04,30,06,34,7.10
2016,04,30,06,35,7.10
2016,04,30,06,36,7.10
2016,04,30,06,37,7.10
2016,04,30,06,38,7.10
2016,04,30,06,39,7.20
2016,04,30,06,40,7.20
2016,04,30,06,41,7.20
2016,04,30,06,42,7.20
2016,04,30,06,43,7.20
2016,04,30,06,44,7.20
2016,04,30,06,45,7.20
2016,04,30,06,46,7.20
2016,04,30,06,47,7.20
2016,04,30,06,48,7.30
2016,04,30,06,49,7.30
2016,04,30,06,50,7.30
2016,04,30,06,51,7.40
2016,04,30,06,52,7.40
2016,04,30,06,53,7.50
2016,04,30,06,54,7.60
2016,04,30,06,55,7.60
2016,04,30,06,56,7.70
2016,04,30,06,57,7.70
2016,04,30,06,58,7.80
2016,04,30,06,59,7.80
2016,04,30,07,00,7.80
2016,04,30,07,01,7.90
2016,04,30,07,02,7.90
2016,04,30,07,03,8.00
2016,04,30,07,04,8.00
2016,04,30,07,05,8.10
2016,04,30,07,06,8.10
2016,04,30,07,07,8.20
2016,04,30,07,08,8.20
2016,04,30,07,09,8.20
2016,04,30,07,10,8.30
2016,04,30,07,11,8.30
2016,04,30,07,12,8.30
2016,04,30,07,13,8.40
2016,04,30,07,14,8.40
2016,04,30,07,15,8.40
2016,04,30,07,16,8.40
2016,04,30,07,17,8.50
2016,04,30,07,18,8.50
2016,04,30,07,19,8.60
2016,04,30,07,20,8.60
2016,04,30,07,21,8.70
2016,04,30,07,22,8.70
2016,04,30,07,23,8.70
2016,04,30,07,24,8.70
2016,04,30,07,25,8.80
2016,04,30,07,26,8.80
2016,04,30,07,27,8.80
2016,04,30,07,28,8.80
2016,04,30,07,29,8.90
2016,04,30,07,30,8.90
2016,04,30,07,31,8.90
2016,04,30,07,32,9.00
2016,04,30,07,33,9.00
2016,04,30,07,34,9.10
2016,04,30,07,35,9.10
2016,04,30,07,36,9.10
2016,04,30,07,37,9.10
2016,04,30,07,38,9.20
2016,04,30,07,39,9.20
2016,04,30,07,40,9.20
2016,04,30,07,41,9.30
2016,04,30,07,42,9.30
2016,04,30,07,43,9.30
2016,04,30,07,44,9.30
2016,04,30,07,45,9.30
2016,04,30,07,46,9.30
2016,04,30,07,47,9.30
2016,04,30,07,48,9.40
2016,04,30,07,49,9.40
2016,04,30,07,50,9.40
2016,04,30,07,51,9.40
2016,04,30,07,52,9.40
2016,04,30,07,53,9.40
2016,04,30,07,54,9.40
2016,04,30,07,55,9.50
2016,04,30,07,56,9.50
2016,04,30,07,57,9.50
2016,04,30,07,58,9.60
2016,04,30,07,59,9.60
2016,04,30,08,00,9.70
2016,04,30,08,01,9.70
2016,04,30,08,02,9.70
2016,04,30,08,03,9.70
2016,04,30,08,04,9.70
2016,04,30,08,05,9.70
2016,04,30,08,06,9.70
2016,04,30,08,07,9.80
2016,04,30,08,08,9.80
2016,04,30,08,09,9.80
2016,04,30,08,10,9.80
2016,04,30,08,11,9.90
2016,04,30,08,12,9.90
2016,04,30,08,13,9.90
2016,04,30,08,14,10.00
2016,04,30,08,15,10.10
2016,04,30,08,16,10.10
2016,04,30,08,17,10.10
2016,04,30,08,18,10.10
2016,04,30,08,19,10.10
2016,04,30,08,20,10.10
2016,04,30,08,21,10.20
2016,04,30,08,22,10.20
2016,04,30,08,23,10.20
2016,04,30,08,24,10.30
2016,04,30,08,25,10.30
2016,04,30,08,26,10.30
2016,04,30,08,27,10.30
2016,04,30,08,28,10.30
2016,04,30,08,29,10.30
2016,04,30,08,30,10.30
2016,04,30,08,31,10.30
2016,04,30,08,32,10.30
2016,04,30,08,33,10.30
2016,04,30,08,34,10.30
2016,04,30,08,35,10.30
2016,04,30,08,36,10.20
2016,04,30,08,37,10.20
2016,04,30,08,38,10.20
2016,04,30,08,39,10.20
2016,04,30,08,40,10.30
2016,04,30,08,41,10.30
2016,04,30,08,42,10.30
2016,04,30,08,43,10.30
2016,04,30,08,44,10.30
2016,04,30,08,45,10.30
2016,04,30,08,46,10.30
2016,04,30,08,47,10.40
2016,04,30,08,48,10.50
2016,04,30,08,49,10.60
2016,04,30,08,50,10.70
2016,04,30,08,51,10.70
2016,04,30,08,52,10.80
2016,04,30,08,53,10.80
2016,04,30,08,54,10.80
2016,04,30,08,55,10.90
2016,04,30,08,56,10.90
2016,04,30,08,57,10.90
2016,04,30,08,58,10.90
2016,04,30,08,59,10.90
2016,04,30,09,00,10.90
2016,04,30,09,01,10.90
2016,04,30,09,02,11.00
2016,04,30,09,03,11.00
2016,04,30,09,04,11.10
2016,04,30,09,05,11.20
2016,04,30,09,06,11.20
2016,04,30,09,07,11.20
2016,04,30,09,08,11.30
2016,04,30,09,09,11.30
2016,04,30,09,10,11.40
2016,04,30,09,11,11.50
2016,04,30,09,12,11.60
2016,04,30,09,13,11.60
2016,04,30,09,14,11.70
2016,04,30,09,15,11.70
2016,04,30,09,16,11.70
2016,04,30,09,17,11.70
2016,04,30,09,18,11.70
2016,04,30,09,19,11.80
2016,04,30,09,20,11.80
2016,04,30,09,21,11.80
2016,04,30,09,22,11.80
2016,04,30,09,23,11.80
2016,04,30,09,24,11.80
2016,04,30,09,25,11.80
2016,04,30,09,26,11.80
2016,04,30,09,27,11.80
2016,04,30,09,28,11.80
2016,04,30,09,29,11.80
2016,04,30,09,30,11.80
2016,04,30,09,31,11.80
2016,04,30,09,32,11.80
2016,04,30,09,33,11.70
2016,04,30,09,34,11.70
2016,04,30,09,35,11.80
2016,04,30,09,36,11.80
2016,04,30,09,37,11.80
2016,04,30,09,38,11.80
2016,04,30,09,39,11.80
2016,04,30,09,40,11.90
2016,04,30,09,41,12.00
2016,04,30,09,42,12.00
2016,04,30,09,43,12.10
2016,04,30,09,44,12.20
2016,04,30,09,45,12.30
2016,04,30,09,46,12.30
2016,04,30,09,47,12.30
2016,04,30,09,48,12.20
2016,04,30,09,49,12.20
2016,04,30,09,50,12.10
2016,04,30,09,51,12.10
2016,04,30,09,52,12.10
2016,04,30,09,53,12.20
2016,04,30,09,54,12.20
2016,04,30,09,55,12.20
2016,04,30,09,56,12.20
2016,04,30,09,57,12.20
2016,04,30,09,58,12.20
2016,04,30,09,59,12.20
2016,04,30,10,00,12.20
2016,04,30,10,01,12.20
2016,04,30,10,02,12.20
2016,04,30,10,03,12.10
2016,04,30,10,04,12.20
2016,04,30,10,05,12.20
2016,04,30,10,06,12.30
2016,04,30,10,07,12.30
2016,04,30,10,08,12.30
2016,04,30,10,09,12.30
2016,04,30,10,10,12.30
2016,04,30,10,11,12.40
2016,04,30,10,12,12.40
2016,04,30,10,13,12.50
2016,04,30,10,14,12.50
2016,04,30,10,15,12.50
2016,04,30,10,16,12.50
2016,04,30,10,17,12.50
2016,04,30,10,18,12.40
2016,04,30,10,19,12.40
2016,04,30,10,20,12.30
2016,04,30,10,21,12.30
2016,04,30,10,22,12.40
2016,04,30,10,23,12.40
2016,04,30,10,24,12.50
2016,04,30,10,25,12.50
2016,04,30,10,26,12.60
2016,04,30,10,27,12.60
2016,04,30,10,28,12.70
2016,04,30,10,29,12.70
2016,04,30,10,30,12.80
2016,04,30,10,31,12.80
2016,04,30,10,32,12.80
2016,04,30,10,33,12.80
2016,04,30,10,34,12.80
2016,04,30,10,35,12.70
2016,04,30,10,36,12.70
2016,04,30,10,37,12.60
2016,04,30,10,38,12.70
2016,04,30,10,39,12.70
2016,04,30,10,40,12.70
2016,04,30,10,41,12.70
2016,04,30,10,42,12.70
2016,04,30,10,43,12.70
2016,04,30,10,44,12.70
2016,04,30,10,45,12.70
2016,04,30,10,46,12.70
2016,04,30,10,47,12.70
2016,04,30,10,48,12.70
2016,04,30,10,49,12.80
2016,04,30,10,50,12.80
2016,04,30,10,51,12.80
2016,04,30,10,52,12.90
2016,04,30,10,53,12.90
2016,04,30,10,54,12.90
2016,04,30,10,55,12.90
2016,04,30,10,56,13.00
2016,04,30,10,57,13.10
2016,04,30,10,58,13.20
2016,04,30,10,59,13.30
2016,04,30,11,00,13.40
2016,04,30,11,01,13.50
2016,04,30,11,02,13.50
2016,04,30,11,03,13.50
2016,04,30,11,04,13.50
2016,04,30,11,05,13.50
2016,04,30,11,06,13.50
2016,04,30,11,07,13.50
2016,04,30,11,08,13.50
2016,04,30,11,09,13.60
2016,04,30,11,10,13.60
2016,04,30,11,11,13.60
2016,04,30,11,12,13.60
2016,04,30,11,13,13.50
2016,04,30,11,14,13.50
2016,04,30,11,15,13.50
2016,04,30,11,16,13.60
2016,04,30,11,17,13.60
2016,04,30,11,18,13.60
2016,04,30,11,19,13.70
2016,04,30,11,20,13.70
2016,04,30,11,21,13.70
2016,04,30,11,22,13.70
2016,04,30,11,23,13.70
2016,04,30,11,24,13.80
2016,04,30,11,25,13.80
2016,04,30,11,26,13.80
2016,04,30,11,27,13.80
2016,04,30,11,28,13.70
2016,04,30,11,29,13.80
2016,04,30,11,30,13.80
2016,04,30,11,31,13.80
2016,04,30,11,32,13.90
2016,04,30,11,33,13.90
2016,04,30,11,34,13.80
2016,04,30,11,35,13.80
2016,04,30,11,36,13.80
2016,04,30,11,37,13.90
2016,04,30,11,38,13.90
2016,04,30,11,39,13.90
2016,04,30,11,40,13.90
2016,04,30,11,41,13.90
2016,04,30,11,42,13.90
2016,04,30,11,43,13.90
2016,04,30,11,44,13.90
2016,04,30,11,45,13.90
2016,04,30,11,46,14.00
2016,04,30,11,47,14.10
2016,04,30,11,48,14.10
2016,04,30,11,49,14.20
2016,04,30,11,50,14.30
2016,04,30,11,51,14.30
2016,04,30,11,52,14.30
2016,04,30,11,53,14.30
2016,04,30,11,54,14.20
2016,04,30,11,55,14.20
2016,04,30,11,56,14.20
2016,04,30,11,57,14.30
2016,04,30,11,58,14.40
2016,04,30,11,59,14.40
2016,04,30,12,00,14.50
2016,04,30,12,01,14.50
2016,04,30,12,02,14.60
2016,04,30,12,03,14.70
2016,04,30,12,04,14.70
2016,04,30,12,05,14.80
2016,04,30,12,06,14.80
2016,04,30,12,07,14.90
2016,04,30,12,08,14.90
2016,04,30,12,09,14.90
2016,04,30,12,10,14.90
2016,04,30,12,11,14.90
2016,04,30,12,12,14.80
2016,04,30,12,13,14.80
2016,04,30,12,14,14.80
2016,04,30,12,15,14.80
2016,04,30,12,16,14.80
2016,04,30,12,17,14.90
2016,04,30,12,18,14.90
2016,04,30,12,19,15.00
2016,04,30,12,20,15.10
2016,04,30,12,21,15.10
2016,04,30,12,22,15.20
2016,04,30,12,23,15.20
2016,04,30,12,24,15.20
2016,04,30,12,25,15.30
2016,04,30,12,26,15.30
2016,04,30,12,27,15.20
2016,04,30,12,28,15.10
2016,04,30,12,29,15.00
2016,04,30,12,30,15.00
2016,04,30,12,31,15.00
2016,04,30,12,32,15.00
2016,04,30,12,33,15.10
2016,04,30,12,34,15.00
2016,04,30,12,35,14.90
2016,04,30,12,36,14.90
2016,04,30,12,37,15.00
2016,04,30,12,38,15.00
2016,04,30,12,39,15.00
2016,04,30,12,40,15.00
2016,04,30,12,41,14.90
2016,04,30,12,42,14.80
2016,04,30,12,43,14.70
2016,04,30,12,44,14.70
2016,04,30,12,45,14.70
2016,04,30,12,46,14.80
2016,04,30,12,47,14.80
2016,04,30,12,48,14.70
2016,04,30,12,49,14.70
2016,04,30,12,50,14.70
2016,04,30,12,51,14.80
2016,04,30,12,52,14.90
2016,04,30,12,53,15.00
2016,04,30,12,54,15.20
2016,04,30,12,55,15.30
2016,04,30,12,56,15.30
2016,04,30,12,57,15.30
2016,04,30,12,58,15.10
2016,04,30,12,59,15.00
2016,04,30,13,00,14.90
2016,04,30,13,01,14.80
2016,04,30,13,02,14.80
2016,04,30,13,03,14.80
2016,04,30,13,04,14.90
2016,04,30,13,05,14.90
2016,04,30,13,06,15.00
2016,04,30,13,07,15.20
2016,04,30,13,08,15.30
2016,04,30,13,09,15.30
2016,04,30,13,10,15.30
2016,04,30,13,11,15.30
2016,04,30,13,12,15.30
2016,04,30,13,13,15.30
2016,04,30,13,14,15.40
2016,04,30,13,15,15.40
2016,04,30,13,16,15.40
2016,04,30,13,17,15.40
2016,04,30,13,18,15.40
2016,04,30,13,19,15.50
2016,04,30,13,20,15.60
2016,04,30,13,21,15.70
2016,04,30,13,22,15.70
2016,04,30,13,23,15.70
2016,04,30,13,24,15.70
2016,04,30,13,25,15.60
2016,04,30,13,26,15.60
2016,04,30,13,27,15.60
2016,04,30,13,28,15.60
2016,04,30,13,29,15.60
2016,04,30,13,30,15.80
2016,04,30,13,31,16.00
2016,04,30,13,32,16.20
2016,04,30,13,33,16.40
2016,04,30,13,34,16.60
2016,04,30,13,35,16.60
2016,04,30,13,36,16.60
2016,04,30,13,37,16.70
2016,04,30,13,38,16.60
2016,04,30,13,39,16.50
2016,04,30,13,40,16.40
2016,04,30,13,41,16.30
2016,04,30,13,42,16.30
2016,04,30,13,43,16.40
2016,04,30,13,44,16.50
2016,04,30,13,45,16.60
2016,04,30,13,46,16.70
2016,04,30,13,47,16.80
2016,04,30,13,48,16.80
2016,04,30,13,49,16.90
2016,04,30,13,50,16.90
2016,04,30,13,51,17.00
2016,04,30,13,52,17.00
2016,04,30,13,53,17.00
2016,04,30,13,54,16.90
2016,04,30,13,55,16.90
2016,04,30,13,56,16.80
2016,04,30,13,57,16.70
2016,04,30,13,58,16.50
2016,04,30,13,59,16.40
2016,04,30,14,00,16.30
2016,04,30,14,01,16.30
2016,04,30,14,02,16.30
2016,04,30,14,03,16.20
2016,04,30,14,04,16.20
2016,04,30,14,05,16.20
2016,04,30,14,06,16.20
2016,04,30,14,07,16.20
2016,04,30,14,08,16.20
2016,04,30,14,09,16.20
2016,04,30,14,10,16.20
2016,04,30,14,11,16.20
2016,04,30,14,12,16.30
2016,04,30,14,13,16.30
2016,04,30,14,14,16.30
2016,04,30,14,15,16.50
2016,04,30,14,16,16.50
2016,04,30,14,17,16.60
2016,04,30,14,18,16.70
2016,04,30,14,19,16.90
2016,04,30,14,20,17.00
2016,04,30,14,21,17.10
2016,04,30,14,22,17.20
2016,04,30,14,23,17.20
2016,04,30,14,24,17.30
2016,04,30,14,25,17.30
2016,04,30,14,26,17.30
2016,04,30,14,27,17.30
2016,04,30,14,28,17.40
2016,04,30,14,29,17.30
2016,04,30,14,30,17.30
2016,04,30,14,31,17.30
2016,04,30,14,32,17.30
2016,04,30,14,33,17.40
2016,04,30,14,34,17.40
2016,04,30,14,35,17.40
2016,04,30,14,36,17.40
2016,04,30,14,37,17.40
2016,04,30,14,38,17.40
2016,04,30,14,39,17.40
2016,04,30,14,40,17.40
2016,04,30,14,41,17.30
2016,04,30,14,42,17.20
2016,04,30,14,43,17.00
2016,04,30,14,44,16.90
2016,04,30,14,45,16.80
2016,04,30,14,46,16.80
2016,04,30,14,47,16.80
2016,04,30,14,48,16.90
2016,04,30,14,49,17.00
2016,04,30,14,50,17.10
2016,04,30,14,51,17.20
2016,04,30,14,52,17.30
2016,04,30,14,53,17.30
2016,04,30,14,54,17.30
2016,04,30,14,55,17.20
2016,04,30,14,56,17.10
2016,04,30,14,57,17.00
2016,04,30,14,58,16.90
2016,04,30,14,59,17.00
2016,04,30,15,00,17.10
2016,04,30,15,01,17.10
2016,04,30,15,02,17.20
2016,04,30,15,03,17.30
2016,04,30,15,04,17.30
2016,04,30,15,05,17.30
2016,04,30,15,06,17.30
2016,04,30,15,07,17.20
2016,04,30,15,08,17.20
2016,04,30,15,09,17.20
2016,04,30,15,10,17.20
2016,04,30,15,11,17.20
2016,04,30,15,12,17.10
2016,04,30,15,13,17.10
2016,04,30,15,14,17.10
2016,04,30,15,15,17.00
2016,04,30,15,16,16.90
2016,04,30,15,17,16.90
2016,04,30,15,18,16.90
2016,04,30,15,19,16.80
2016,04,30,15,20,16.80
2016,04,30,15,21,16.80
2016,04,30,15,22,16.90
2016,04,30,15,23,17.00
2016,04,30,15,24,17.00
2016,04,30,15,25,17.10
2016,04,30,15,26,17.30
2016,04,30,15,27,17.30
2016,04,30,15,28,17.40
2016,04,30,15,29,17.50
2016,04,30,15,30,17.50
2016,04,30,15,31,17.50
2016,04,30,15,32,17.50
2016,04,30,15,33,17.40
2016,04,30,15,34,17.40
2016,04,30,15,35,17.30
2016,04,30,15,36,17.40
2016,04,30,15,37,17.40
2016,04,30,15,38,17.40
2016,04,30,15,39,17.40
2016,04,30,15,40,17.40
2016,04,30,15,41,17.50
2016,04,30,15,42,17.60
2016,04,30,15,43,17.70
2016,04,30,15,44,17.80
2016,04,30,15,45,17.90
2016,04,30,15,46,18.00
2016,04,30,15,47,18.10
2016,04,30,15,48,18.20
2016,04,30,15,49,18.30
2016,04,30,15,50,18.40
2016,04,30,15,51,18.40
2016,04,30,15,52,18.40
2016,04,30,15,53,18.40
2016,04,30,15,54,18.30
2016,04,30,15,55,18.30
2016,04,30,15,56,18.20
2016,04,30,15,57,18.20
2016,04,30,15,58,18.10
2016,04,30,15,59,18.10
2016,04,30,16,00,18.10
2016,04,30,16,01,18.10
2016,04,30,16,02,18.10
2016,04,30,16,03,18.10
2016,04,30,16,04,18.10
2016,04,30,16,05,18.10
2016,04,30,16,06,18.10
2016,04,30,16,07,18.10
2016,04,30,16,08,18.20
2016,04,30,16,09,18.30
2016,04,30,16,10,18.50
2016,04,30,16,11,18.70
2016,04,30,16,12,18.90
2016,04,30,16,13,19.00
2016,04,30,16,14,19.20
2016,04,30,16,15,19.30
2016,04,30,16,16,19.30
2016,04,30,16,17,19.30
2016,04,30,16,18,19.30
2016,04,30,16,19,19.30
2016,04,30,16,20,19.30
2016,04,30,16,21,19.20
2016,04,30,16,22,19.20
2016,04,30,16,23,19.20
2016,04,30,16,24,19.10
2016,04,30,16,25,19.00
2016,04,30,16,26,18.90
2016,04,30,16,27,18.80
2016,04,30,16,28,18.80
2016,04,30,16,29,18.70
2016,04,30,16,30,18.60
2016,04,30,16,31,18.50
2016,04,30,16,32,18.50
2016,04,30,16,33,18.40
2016,04,30,16,34,18.30
2016,04,30,16,35,18.30
2016,04,30,16,36,18.40
2016,04,30,16,37,18.40
2016,04,30,16,38,18.40
2016,04,30,16,39,18.40
2016,04,30,16,40,18.40
2016,04,30,16,41,18.50
2016,04,30,16,42,18.50
2016,04,30,16,43,18.60
2016,04,30,16,44,18.80
2016,04,30,16,45,18.90
2016,04,30,16,46,18.90
2016,04,30,16,47,18.90
2016,04,30,16,48,19.00
2016,04,30,16,49,19.00
2016,04,30,16,50,19.10
2016,04,30,16,51,19.20
2016,04,30,16,52,19.30
2016,04,30,16,53,19.40
2016,04,30,16,54,19.40
2016,04,30,16,55,19.40
2016,04,30,16,56,19.40
2016,04,30,16,57,19.30
2016,04,30,16,58,19.20
2016,04,30,16,59,19.20
2016,04,30,17,00,19.20
2016,04,30,17,01,19.20
2016,04,30,17,02,19.20
2016,04,30,17,03,19.20
2016,04,30,17,04,19.20
2016,04,30,17,05,19.20
2016,04,30,17,06,19.20
2016,04,30,17,07,19.20
2016,04,30,17,08,19.20
2016,04,30,17,09,19.20
2016,04,30,17,10,19.30
2016,04,30,17,11,19.30
2016,04,30,17,12,19.40
2016,04,30,17,13,19.40
2016,04,30,17,14,19.40
2016,04,30,17,15,19.40
2016,04,30,17,16,19.30
2016,04,30,17,17,19.20
2016,04,30,17,18,19.20
2016,04,30,17,19,19.20
2016,04,30,17,20,19.20
2016,04,30,17,21,19.20
2016,04,30,17,22,19.20
2016,04,30,17,23,19.20
2016,04,30,17,24,19.10
2016,04,30,17,25,19.10
2016,04,30,17,26,19.20
2016,04,30,17,27,19.20
2016,04,30,17,28,19.20
2016,04,30,17,29,19.20
2016,04,30,17,30,19.30
2016,04,30,17,31,19.30
2016,04,30,17,32,19.30
2016,04,30,17,33,19.30
2016,04,30,17,34,19.30
2016,04,30,17,35,19.30
2016,04,30,17,36,19.40
2016,04,30,17,37,19.50
2016,04,30,17,38,19.60